EW5826 Weather Reports


time (UTC)temp
C
wind
direction
speed
KPH
gust
KPH
rain 1hr
cm
rain 24hr
cm
rain mn
cm
humidity
%
barometer
mb
20260503054519 2 225 1.6 3.2 0.00 0.00 0.00 83 1018.5
20260503053518 2 225 1.6 3.2 0.00 0.00 0.00 82 1018.6
20260503052518 2 225 1.6 3.2 0.00 0.00 0.00 82 1018.5
20260503051519 2 225 1.6 3.2 0.00 0.00 0.00 82 1018.6
20260503050518 2 0.0 3.2 0.00 0.00 0.00 82 1018.5
20260503045519 2 0.0 3.2 0.00 0.00 0.00 82 1018.4
20260503044518 2 0.0 1.6 0.00 0.00 0.00 81 1018.5
20260503043519 2 0.0 1.6 0.00 0.00 0.00 81 1018.4
20260503042539 2 0.0 4.8 0.00 0.00 0.00 80 1018.4
20260503041518 2 0.0 0.0 0.00 0.00 0.00 80 1018.4
20260503040518 2 0.0 0.0 0.00 0.00 0.00 79 1018.4
20260503040019 2 0.0 1.6 0.00 0.00 0.00 79 1018.5
20260503035058 3 0.0 3.2 0.00 0.00 0.00 77 1018.5
20260503034019 3 0.0 1.6 0.00 0.00 0.00 77 1018.5
20260503033019 3 0.0 3.2 0.00 0.00 0.00 75 1018.5
20260503032018 3 0.0 1.6 0.00 0.00 0.00 75 1018.5
20260503031018 3 0.0 1.6 0.00 0.00 0.00 74 1018.5
20260503030018 4 203 1.6 3.2 0.00 0.00 0.00 74 1018.6
20260503025018 4 0.0 1.6 0.00 0.00 0.00 72 1018.7
20260503024019 5 203 1.6 3.2 0.00 0.00 0.00 71 1018.8
20260503023018 5 0.0 3.2 0.00 0.00 0.00 70 1018.7
20260503022018 5 0.0 3.2 0.00 0.00 0.00 70 1018.7
20260503021018 5 293 1.6 3.2 0.00 0.00 0.00 71 1018.7
20260503020018 5 0.0 0.0 0.00 0.00 0.00 70 1018.7
20260503015018 5 0.0 1.6 0.00 0.00 0.00 71 1018.6
20260503014018 5 0.0 0.0 0.00 0.00 0.00 70 1018.6
20260503013018 5 0.0 1.6 0.00 0.00 0.00 71 1018.5
20260503012018 5 0.0 3.2 0.00 0.00 0.00 69 1018.4
20260503011018 6 0.0 1.6 0.00 0.00 0.00 66 1018.4
20260503010018 6 0.0 1.6 0.00 0.00 0.00 67 1018.5
20260503005019 6 0.0 3.2 0.00 0.00 0.00 65 1018.3
20260503004020 6 0.0 3.2 0.00 0.00 0.00 62 1018.3
20260503003019 6 0.0 1.6 0.00 0.00 0.00 60 1018.3
20260503002018 6 315 1.6 4.8 0.00 0.00 0.00 56 1018.1
20260503001038 7 315 1.6 4.8 0.00 0.00 0.00 55 1018.0
20260503000020 7 315 3.2 6.4 0.00 0.00 0.00 56 1018.2
20260502235018 7 338 1.6 3.2 0.00 0.00 0.00 56 1018.1
20260502234020 8 270 1.6 4.8 0.00 0.00 0.00 52 1018.2
20260502233018 8 293 1.6 6.4 0.00 0.00 0.00 54 1018.2
20260502232018 8 23 3.2 6.4 0.00 0.00 0.00 52 1018.1
20260502231020 8 315 3.2 4.8 0.00 0.00 0.00 54 1018.1
20260502230020 8 315 4.8 12.9 0.00 0.00 0.00 52 1018.2
20260502225018 8 315 6.4 12.9 0.00 0.03 0.00 50 1018.2
20260502224018 9 293 3.2 8.0 0.00 0.03 0.00 50 1018.3
20260502223018 8 315 4.8 12.9 0.00 0.03 0.00 53 1018.4
20260502222020 8 315 6.4 16.1 0.00 0.03 0.00 52 1018.3
20260502221020 8 315 6.4 11.3 0.00 0.03 0.00 52 1018.4
20260502220018 8 315 6.4 14.5 0.00 0.03 0.00 54 1018.3
20260502215018 8 315 6.4 14.5 0.00 0.03 0.00 53 1018.4
20260502214019 8 293 4.8 12.9 0.00 0.03 0.00 54 1018.3
20260502213019 8 315 4.8 12.9 0.00 0.03 0.00 54 1018.3
20260502212039 8 293 8.0 17.7 0.00 0.03 0.00 56 1018.3
20260502211019 8 293 6.4 12.9 0.00 0.03 0.00 54 1018.3
20260502210019 8 315 4.8 12.9 0.00 0.03 0.00 53 1018.2
20260502205019 8 315 6.4 14.5 0.00 0.03 0.00 53 1018.3
20260502204059 8 315 6.4 12.9 0.00 0.03 0.00 55 1018.4
20260502203019 8 315 4.8 17.7 0.00 0.03 0.00 56 1018.4
20260502202019 8 293 6.4 16.1 0.00 0.03 0.00 53 1018.4
20260502201038 8 338 6.4 16.1 0.00 0.03 0.00 55 1018.7
20260502200019 8 315 8.0 16.1 0.00 0.03 0.00 53 1018.6
20260502195039 8 315 6.4 22.5 0.00 0.03 0.00 55 1018.7
20260502194018 9 315 6.4 14.5 0.00 0.03 0.00 53 1018.8
20260502193018 8 315 4.8 12.9 0.00 0.03 0.00 55 1018.8
20260502192018 9 293 11.3 19.3 0.00 0.03 0.00 53 1019.0
20260502191018 9 315 6.4 16.1 0.00 0.03 0.00 55 1019.0
20260502190019 8 315 6.4 12.9 0.00 0.03 0.00 53 1019.1
20260502185019 8 315 6.4 16.1 0.00 0.03 0.00 56 1019.2
20260502184018 8 315 8.0 22.5 0.00 0.03 0.00 55 1019.2
20260502183018 8 293 6.4 16.1 0.00 0.03 0.00 54 1019.3
20260502182018 9 315 6.4 12.9 0.00 0.03 0.00 52 1019.3
20260502181038 8 315 6.4 17.7 0.00 0.03 0.00 53 1019.4
20260502164038 7 315 6.4 19.3 0.00 0.03 0.00 57 1019.9
20260502163059 7 315 6.4 19.3 0.00 0.03 0.00 59 1020.0
20260502162020 7 293 4.8 9.7 0.00 0.03 0.00 59 1020.0
20260502161018 8 315 4.8 12.9 0.00 0.03 0.00 53 1020.1
20260502152038 7 293 4.8 14.5 0.00 0.03 0.00 64 1020.0
20260502151018 7 293 4.8 9.7 0.00 0.05 0.00 60 1020.1
20260502123020 3 315 6.4 16.1 0.00 0.41 0.00 81 1019.1
20260502122039 2 315 8.0 12.9 0.00 0.41 0.00 83 1019.0
20260502121519 2 315 4.8 11.3 0.00 0.41 0.00 84 1019.0
20260502120539 2 315 4.8 11.3 0.00 0.41 0.00 85 1019.0
20260502115518 1 315 3.2 8.0 0.00 0.43 0.00 86 1019.0
20260502114539 1 293 3.2 8.0 0.00 0.46 0.00 87 1019.1
20260502113539 0 315 3.2 6.4 0.00 0.51 0.00 87 1019.0
20260502112518 0 293 1.6 6.4 0.00 0.53 0.00 87 1018.9
20260502111519 0 315 1.6 4.8 0.00 0.58 0.00 87 1018.8
20260502110519 0 315 1.6 4.8 0.00 0.61 0.00 87 1018.7
20260502105518 0 293 1.6 4.8 0.00 0.61 0.00 87 1018.6
20260502104518 0 270 1.6 4.8 0.00 0.61 0.00 87 1018.5
20260502103539 0 293 3.2 4.8 0.00 0.61 0.00 87 1018.4
20260502102518 0 270 3.2 9.7 0.00 0.64 0.00 87 1018.3
20260502101518 0 293 3.2 4.8 0.00 0.66 0.00 86 1018.3
20260502100518 0 270 3.2 9.7 0.00 0.66 0.00 86 1018.3
20260502090518 0 293 3.2 6.4 0.00 0.66 0.00 86 1018.3
20260502071518 1 270 3.2 9.7 0.00 0.71 0.00 82 1018.3
20260502070540 2 270 3.2 9.7 0.00 0.71 0.00 82 1018.3
20260502065520 2 270 3.2 9.7 0.00 0.71 0.00 82 1018.3
20260502064518 2 293 3.2 4.8 0.00 0.71 0.00 82 1018.2
20260502063558 2 270 3.2 6.4 0.00 0.74 0.00 80 1018.3